Hourly Weather Abay

Today, 21 January, Thursday

Time Temperature Precipitation Wind Pressure Humidity
00:00 -7°C° 0 mm 2 mps 668 mmHg 92%
01:00 -8°C° 0 mm 2 mps 669 mmHg 93%
02:00 -8°C° 0 mm 2 mps 669 mmHg 93%
03:00 -8°C° 0 mm 2 mps 669 mmHg 93%
04:00 -8°C° 0 mm 2 mps 669 mmHg 93%
05:00 -8°C° 0 mm 2 mps 669 mmHg 93%
06:00 -8°C° 0 mm 2 mps 669 mmHg 93%
07:00 -8°C° 0 mm 2 mps 669 mmHg 93%
08:00 -8°C° 0 mm 2 mps 668 mmHg 94%
09:00 -8°C° 0 mm 2 mps 668 mmHg 94%
10:00 -6°C° 0.1 mm 2 mps 668 mmHg 93%
11:00 -5°C° 0.1 mm 2 mps 668 mmHg 91%
12:00 -4°C° 0.1 mm 2 mps 668 mmHg 90%
13:00 -3°C° 0.2 mm 2 mps 668 mmHg 91%
14:00 -3°C° 0.2 mm 2 mps 667 mmHg 91%
15:00 -2°C° 0.2 mm 2 mps 667 mmHg 92%
16:00 -4°C° 0.1 mm 2 mps 666 mmHg 93%
17:00 -5°C° 0.1 mm 2 mps 665 mmHg 93%
18:00 -6°C° 0.1 mm 2 mps 665 mmHg 94%
19:00 -7°C° 0 mm 2 mps 664 mmHg 94%
20:00 -7°C° 0 mm 2 mps 664 mmHg 94%
21:00 -7°C° 0 mm 2 mps 663 mmHg 94%
22:00 -6°C° 0 mm 1 mps 663 mmHg 93%
23:00 -6°C° 0 mm 1 mps 662 mmHg 92%

Tomorrow, 22 January, Friday

Time Temperature Precipitation Wind Pressure Humidity
00:00 -6°C° 0 mm 1 mps 662 mmHg 91%
01:00 -6°C° 0 mm 1 mps 661 mmHg 91%
02:00 -7°C° 0 mm 2 mps 661 mmHg 91%
03:00 -7°C° 0 mm 2 mps 660 mmHg 91%
04:00 -7°C° 0 mm 2 mps 660 mmHg 91%
05:00 -7°C° 0 mm 2 mps 659 mmHg 91%
06:00 -8°C° 0 mm 2 mps 659 mmHg 91%
07:00 -7°C° 0 mm 2 mps 659 mmHg 90%
08:00 -7°C° 0 mm 2 mps 659 mmHg 89%
09:00 -7°C° 0 mm 2 mps 659 mmHg 88%
10:00 -4°C° 0 mm 1 mps 659 mmHg 86%
11:00 -2°C° 0 mm 1 mps 660 mmHg 85%
12:00 -1°C° 0 mm 1 mps 660 mmHg 84%
13:00 0°C° 0 mm 1 mps 660 mmHg 85%
14:00 0°C° 0 mm 1 mps 660 mmHg 87%
15:00 0°C° 0 mm 1 mps 660 mmHg 88%
16:00 -3°C° 0.1 mm 2 mps 660 mmHg 90%
17:00 -4°C° 0.1 mm 2 mps 660 mmHg 91%
18:00 -5°C° 0.1 mm 2 mps 660 mmHg 93%
19:00 -5°C° 0.7 mm 2 mps 661 mmHg 94%
20:00 -5°C° 0.7 mm 2 mps 662 mmHg 94%
21:00 -5°C° 0.7 mm 2 mps 663 mmHg 95%
22:00 -6°C° 0.4 mm 2 mps 663 mmHg 94%
23:00 -8°C° 0.4 mm 3 mps 664 mmHg 93%

Day after tomorrow, 23 January, Saturday

Time Temperature Precipitation Wind Pressure Humidity
00:00 -9°C° 0.4 mm 3 mps 665 mmHg 92%
01:00 -10°C° 0.1 mm 3 mps 666 mmHg 93%
02:00 -10°C° 0.1 mm 2 mps 667 mmHg 93%
03:00 -12°C° 0.1 mm 2 mps 668 mmHg 94%
04:00 -14°C° 0.1 mm 2 mps 668 mmHg 94%
05:00 -15°C° 0.1 mm 2 mps 669 mmHg 94%
06:00 -16°C° 0.1 mm 2 mps 669 mmHg 94%
07:00 -17°C° 0 mm 2 mps 670 mmHg 94%
08:00 -18°C° 0 mm 2 mps 670 mmHg 94%
09:00 -19°C° 0 mm 2 mps 671 mmHg 94%
10:00 -19°C° 0 mm 3 mps 671 mmHg 91%
11:00 -18°C° 0 mm 3 mps 672 mmHg 87%
12:00 -16°C° 0 mm 3 mps 672 mmHg 84%
13:00 -16°C° 0 mm 3 mps 672 mmHg 84%
14:00 -16°C° 0 mm 3 mps 672 mmHg 83%
15:00 -16°C° 0 mm 3 mps 672 mmHg 83%
16:00 -18°C° 0 mm 3 mps 672 mmHg 87%
17:00 -19°C° 0 mm 3 mps 672 mmHg 91%
18:00 -20°C° 0 mm 2 mps 672 mmHg 94%
19:00 -20°C° 0 mm 2 mps 672 mmHg 95%
20:00 -21°C° 0 mm 2 mps 672 mmHg 95%
21:00 -21°C° 0 mm 2 mps 673 mmHg 95%
22:00 -21°C° 0 mm 2 mps 673 mmHg 95%
23:00 -23°C° 0 mm 2 mps 673 mmHg 95%

24 January, Sunday

Time Temperature Precipitation Wind Pressure Humidity
00:00 -23°C° 0 mm 2 mps 673 mmHg 95%
01:00 -23°C° 0 mm 2 mps 673 mmHg 95%
02:00 -24°C° 0 mm 2 mps 673 mmHg 94%
03:00 -24°C° 0 mm 2 mps 673 mmHg 94%
04:00 -24°C° 0 mm 2 mps 673 mmHg 94%
05:00 -24°C° 0 mm 2 mps 673 mmHg 95%
06:00 -24°C° 0 mm 2 mps 673 mmHg 95%
07:00 -23°C° 0 mm 2 mps 673 mmHg 95%
08:00 -23°C° 0 mm 2 mps 674 mmHg 94%
09:00 -21°C° 0 mm 2 mps 674 mmHg 94%
10:00 -22°C° 0.1 mm 3 mps 674 mmHg 92%
11:00 -19°C° 0.1 mm 3 mps 674 mmHg 89%
12:00 -19°C° 0.1 mm 4 mps 674 mmHg 86%
13:00 -19°C° 0.1 mm 4 mps 674 mmHg 85%
14:00 -19°C° 0.1 mm 4 mps 674 mmHg 84%
15:00 -20°C° 0.1 mm 4 mps 674 mmHg 83%
16:00 -20°C° 0 mm 4 mps 674 mmHg 86%
17:00 -21°C° 0 mm 3 mps 674 mmHg 90%
18:00 -20°C° 0 mm 2 mps 674 mmHg 94%
19:00 -21°C° 0 mm 2 mps 674 mmHg 94%
20:00 -21°C° 0 mm 2 mps 675 mmHg 95%
21:00 -21°C° 0 mm 2 mps 675 mmHg 95%
22:00 -23°C° 0 mm 2 mps 675 mmHg 95%
23:00 -23°C° 0 mm 2 mps 675 mmHg 95%

25 January, Monday

Time Temperature Precipitation Wind Pressure Humidity
00:00 -23°C° 0 mm 2 mps 675 mmHg 95%
01:00 -24°C° 0 mm 2 mps 675 mmHg 95%
02:00 -24°C° 0 mm 2 mps 675 mmHg 95%
03:00 -24°C° 0 mm 2 mps 675 mmHg 94%
04:00 -25°C° 0 mm 2 mps 675 mmHg 95%
05:00 -25°C° 0 mm 2 mps 675 mmHg 95%
06:00 -23°C° 0 mm 1 mps 675 mmHg 95%
07:00 -23°C° 0 mm 1 mps 676 mmHg 95%
08:00 -23°C° 0 mm 1 mps 676 mmHg 95%
09:00 -23°C° 0 mm 1 mps 676 mmHg 94%
10:00 -24°C° 0 mm 2 mps 677 mmHg 92%
11:00 -21°C° 0 mm 2 mps 677 mmHg 89%
12:00 -20°C° 0 mm 2 mps 677 mmHg 87%
13:00 -19°C° 0 mm 2 mps 677 mmHg 86%
14:00 -19°C° 0 mm 2 mps 677 mmHg 86%
15:00 -19°C° 0 mm 2 mps 677 mmHg 85%
16:00 -20°C° 0 mm 2 mps 677 mmHg 87%
17:00 -21°C° 0 mm 2 mps 676 mmHg 90%
18:00 -23°C° 0 mm 2 mps 676 mmHg 93%
19:00 -23°C° 0 mm 2 mps 676 mmHg 92%
20:00 -23°C° 0 mm 2 mps 676 mmHg 91%
21:00 -23°C° 0 mm 2 mps 676 mmHg 90%
22:00 -23°C° 0 mm 2 mps 675 mmHg 91%
23:00 -21°C° 0 mm 2 mps 675 mmHg 91%

26 January, Tuesday

Time Temperature Precipitation Wind Pressure Humidity
00:00 -21°C° 0 mm 2 mps 675 mmHg 91%
01:00 -21°C° 0 mm 2 mps 675 mmHg 93%
02:00 -21°C° 0 mm 2 mps 675 mmHg 94%
03:00 -20°C° 0 mm 2 mps 674 mmHg 95%
04:00 -20°C° 0.1 mm 2 mps 674 mmHg 96%
05:00 -20°C° 0.1 mm 2 mps 674 mmHg 96%
06:00 -20°C° 0.1 mm 2 mps 673 mmHg 96%
07:00 -21°C° 0.1 mm 3 mps 673 mmHg 95%
08:00 -21°C° 0.1 mm 3 mps 673 mmHg 94%
09:00 -21°C° 0.1 mm 3 mps 673 mmHg 94%
10:00 -19°C° 0 mm 3 mps 673 mmHg 92%
11:00 -18°C° 0 mm 3 mps 673 mmHg 89%
12:00 -18°C° 0 mm 4 mps 673 mmHg 87%
13:00 -18°C° 0 mm 4 mps 673 mmHg 88%
14:00 -18°C° 0 mm 4 mps 672 mmHg 88%
15:00 -18°C° 0 mm 4 mps 672 mmHg 88%
16:00 -18°C° 0 mm 3 mps 672 mmHg 90%
17:00 -19°C° 0 mm 3 mps 672 mmHg 92%
18:00 -21°C° 0 mm 3 mps 672 mmHg 93%
19:00 -21°C° 0 mm 3 mps 672 mmHg 94%
20:00 -19°C° 0 mm 2 mps 672 mmHg 94%
21:00 -19°C° 0 mm 2 mps 672 mmHg 95%
22:00 -19°C° 0 mm 2 mps 672 mmHg 95%
23:00 -19°C° 0 mm 2 mps 673 mmHg 95%
Show more